#timestamp,LO_Frequency,Hit,StdDev 
1508382015.8,286046998.5,N
1508382035.7,286046998.4,N
1508382055.5,286046998.2,N
1508382075.3,286046998.4,N
1508382095.2,286047000.2,N
1508382115.9,286047000.0,N
1508382135.7,286046998.6,N
1508382155.6,286046998.6,N
1508382175.4,286047000.3,N
1508382195.2,286047001.3,N
1508382215.1,286046999.8,N
1508382216.0,286046999.8,N
1508382235.8,286046998.9,N
1508382255.6,286046998.3,N
1508382275.5,286047003.4,N
1508382295.3,286047003.8,N
1508382315.1,286047001.1,N
1508382335.8,286046999.4,N
1508382355.7,286047001.5,N
1508382375.5,286047001.8,N
1508382395.3,286047001.9,N
1508382415.2,286046995.0,Y
1508382435.0,286046993.7,P
1508382435.9,286046993.7,N
1508382455.7,286046992.9,N
1508382475.6,286046989.2,Y
1508382495.4,286046992.4,P
1508382515.2,286046991.8,P
1508382535.1,286046992.5,P
1508382536.0,286046992.5,Y
1508382555.8,286046998.1,P
1508382575.7,286047001.0,N
1508382595.5,286046998.5,N
1508382615.3,286046997.2,N
1508382635.1,286046996.8,N
1508382655.9,286046997.0,N
1508382675.7,286046995.2,N
1508382695.5,286046995.2,N
1508382715.4,286046994.6,N
1508382735.2,286046995.6,N
1508382755.0,286046993.8,N
1508382755.9,286046993.8,N
1508382775.8,286046992.1,Y
1508382795.6,286046997.5,P
1508382815.4,286046995.1,P
1508382835.3,286046999.2,N
1508382855.1,286046998.8,N
1508382875.8,286047000.0,N
1508382895.7,286047002.3,N
1508382915.5,286046996.6,N
1508382935.3,286046998.4,N
1508382955.2,286047002.1,N
1508382975.9,286046998.8,N
1508382995.7,286046999.9,N
1508383015.6,286046998.2,N
1508383035.4,286046998.1,N
1508383055.2,286046999.1,N
1508383075.0,286046999.3,N
1508383076.0,286046999.3,N
1508383095.8,286046996.5,N
1508383115.6,286046999.7,N
1508383135.4,286047000.8,N
1508383155.3,286046997.8,N
1508383175.1,286046995.9,N
1508383195.8,286046993.4,Y
1508383215.7,286046996.2,P
1508383235.5,286046992.2,P
1508383255.3,286046994.9,N
1508383275.2,286046999.4,N
1508383295.9,286046999.9,N
1508383315.7,286047003.3,N
1508383335.6,286047008.8,N
1508383355.4,286047008.3,N
1508383375.2,286047014.2,N
1508383395.1,286047014.4,N
1508383396.0,286047014.4,N
1508383415.8,286047015.2,N
1508383435.6,286047012.8,N
1508383455.5,286047015.6,N
1508383475.3,286047017.0,N
1508383495.1,286047018.3,N
1508383515.8,286047019.4,N
1508383535.7,286047020.0,N
1508383555.5,286047019.6,N
1508383575.3,286047023.2,N
1508383595.2,286047022.1,N
1508383615.9,286047021.8,N
1508383635.7,286047021.9,N
1508383655.6,286047020.6,N
1508383675.4,286047020.6,N
1508383695.2,286047017.8,N
1508383715.1,286047020.0,N
1508383716.0,286047020.0,N
1508383735.8,286047014.2,N
1508383755.6,286047016.8,N
1508383775.5,286047014.1,N
1508383795.3,286047013.2,N
1508383815.1,286047012.9,N
1508383835.9,286047012.6,N
1508383855.7,286047013.8,N
1508383875.5,286047013.4,N
1508383895.3,286047011.0,N
1508383915.2,286047011.8,Y
1508383935.0,286046995.9,P
1508383935.9,286046995.9,N
1508383955.8,286046996.5,N
1508383975.6,286047000.9,N
1508383995.4,286046999.2,N
1508384015.2,286047000.8,N
1508384035.1,286046999.1,N
1508384036.0,286046999.1,N
1508384055.8,286047001.0,N
1508384075.6,286046996.1,N
1508384095.5,286046992.7,N
1508384115.3,286046990.9,N
1508384135.1,286046988.5,N
1508384155.9,286046990.6,N
1508384175.7,286046990.4,N
1508384195.5,286046990.4,N
1508384215.4,286046990.6,N
1508384235.2,286046991.8,N
1508384255.0,286046992.2,N
1508384255.9,286046992.2,N
1508384275.8,286046990.9,N
1508384295.6,286046989.2,N
1508384315.4,286046987.7,N
1508384335.3,286046984.1,N
1508384355.1,286046988.1,N
1508384356.0,286046988.1,N
1508384375.8,286046987.2,N
1508384395.7,286046991.2,N
1508384415.5,286046988.4,N
1508384435.3,286046987.4,N
1508384455.1,286046990.0,N
1508384475.9,286046990.0,N
1508384495.7,286046986.9,N
1508384515.5,286046986.2,N
1508384535.4,286046988.2,N
1508384555.2,286046985.9,Y
1508384575.0,286046995.8,P
1508384575.9,286046995.8,N
1508384595.8,286046996.7,N
1508384615.6,286046998.7,N
1508384635.4,286047001.1,N
1508384655.3,286046995.8,N
1508384675.1,286046995.0,N
1508384676.0,286046995.0,N
1508384695.8,286046994.9,N
1508384715.7,286046999.0,N
1508384735.5,286046997.2,N
1508384755.3,286046995.2,N
1508384775.2,286046996.0,N
1508384795.9,286046995.1,N
1508384815.7,286046995.3,N
1508384835.6,286046995.6,N
1508384855.4,286046994.1,N
1508384875.2,286046991.9,Y
1508384895.1,286046999.1,P
1508384896.0,286046999.1,N
1508384915.8,286046999.2,N
1508384935.6,286046999.4,N
1508384955.5,286046999.6,N
1508384975.3,286046999.3,N
1508384995.1,286046999.2,N
1508385015.9,286047001.0,N
1508385035.7,286047000.6,N
1508385055.5,286046998.5,N
1508385075.3,286046998.2,N
1508385095.2,286046999.4,N
1508385115.0,286046999.4,N
1508385115.9,286046999.4,N
1508385135.7,286047002.9,N
1508385155.6,286047008.9,Y
1508385175.4,286047010.3,P
1508385195.3,286047010.7,N
1508385215.1,286047010.2,N
1508385216.0,286047010.2,N
1508385235.8,286047011.5,N
1508385255.6,286047011.4,N
1508385275.5,286047013.2,Y
1508385295.3,286047005.8,P
1508385315.1,286047002.9,N
1508385335.9,286047005.7,N
1508385355.7,286047005.0,N
1508385375.6,286047006.3,Y
1508385395.4,286047001.1,P
1508385415.2,286047000.2,N
1508385435.0,286047000.4,N
1508385436.0,286047000.4,N
1508385455.8,286046999.7,N
1508385475.6,286047000.5,N
1508385495.4,286047000.7,N
1508385515.3,286046998.8,N
1508385535.1,286046998.7,N
1508385555.8,286046998.1,N
1508385575.7,286046999.1,N
1508385595.5,286046997.6,N
